THOR ABLESTAR DEB, 469

Orbit data source: Space-Track

THOR ABLESTAR DEB, 469 is space debris in LEO originally from a launch on Thu, 29 Jun 1961 UTC launched from the Air Force Eastern Test Range (AFETR). Debris objects in space refer to the collection of defunct objects orbiting the Earth. Examples of debris include non-operational satellites, rocket bodies, and fragments generated from explosions, collisions, or faulty payload assembly.

Loading next visibility...
Identifier
469, 1961-015FF
Orbit
LEO
Country
Flag of USUS
Related business
Manufacturer
Unknown
Mission
Spacecraft
Bus & Motor
Unknown
Mass
Unknown
Launch date (UTC)
1961-06-29 (65 years ago)
Launch vehicle
Unknown
Launch site
Air Force Eastern Test Range (AFETR)
Object type
Payload
Rocket body
Debris
Shape & HBR
Unknown shape, 0.1 m
Radar Cross Section
Medium (>0.1 m² and <1 m²)

Expand to show TLE details & history
Last TLE update: 11 hours ago

TLE from 11 hours ago
0 THOR ABLESTAR DEB
1 00469U 61015FF  26227.49064365  .00000471  00000-0  19081-3 0  9992
2 00469  66.8343   0.0147 0055378 155.2063 205.1719 14.35238873361529
Epoch: 2026-08-15T11:46Z
TLE epoch observation values (Epoch: 2026-08-15T11:46:31.611Z)
Latitude
-0.00004°
Longitude
-140.51779°
Altitude
812.286 km
Speed
7.429 km/s
True Right ascension
00h 00m 03s
True Declination
0° 00' 00"
Sunlit
Object was in full shadow at epoch
Visualization orbit readout
Latitude
Unknown
Longitude
Unknown
Altitude
Unknown
Speed
Unknown
Apparent Right ascension
Unknown
Apparent Declination
Unknown
Sunlit
N/A
Visualization observer readout
Local Sidereal Time
13:24:43
Azimuth
Unknown
Elevation
Unknown
Doppler factor
Unknown
Orbital elements
Apogee altitude
812.227 km
Perigee altitude
733.028 km
Semi-major axis
7,150.765 km
Eccentricity
0.00554
Inclination
66.8343°
RAAN
0.0147°
Arg. of periapsis
155.2063°
True anomaly
204.90367°
Mean anomaly
205.1719°
Eccentric anomaly
205.03762°
Mean motion
3.58934 °/min
Orbital period
100.3 mins
BSTAR
0.00019081
Loading maneuver chart data...
Computing Atmospheric mass density...

Documentation

Showing up to 5 results
|